RH
94 93 94 95 97 99 99 99 98 97 97 99 100 100 100 100 100 100 101 99 99 98 98 99 97 97 95 95 95 86 84 83 68 59 52 38 34 32 29 32 29 21 15 17 23 20 17 20 20 19 16 16 14 10 8 6 6 7 9 10 11 10 8 7 5 3 3 3 5 5 5 6 5 9 11 10 13 12 18 32 37 39 38 31 31 45 59 62
97 96 95 94 94 94 96 95 94 96 97 98 100 100 100 100 100 100 100 100 101 99 99 100 99 99 97 96 87 73 80 81 66 53 38 26 27 31 27 27 31 22 15 21 23 18 16 16 18 18 17 15 12 10 8 7 7 8 9 10 10 9 7 5 4 3 4 5 5 5 6 5 6 10 14 14 16 16 26 38 37 47 49 35 40 53 57 64
97 99 98 98 97 94 94 92 92 96 98 99 100 99 99 99 100 100 100 100 100 100 101 99 100 100 97 96 80 69 81 74 55 44 30 23 25 26 22 20 23 16 13 20 19 17 16 14 16 17 17 14 10 9 7 7 7 8 9 10 10 7 6 5 4 3 4 6 5 6 5 5 8 11 16 18 18 16 25 40 38 44 55 51 52 55 58 65
96 98 98 99 99 97 97 95 94 97 99 99 97 98 99 98 99 100 100 100 100 100 100 100 101 98 97 94 73 67 76 60 40 31 24 22 21 21 22 18 15 11 12 17 15 15 15 13 15 15 14 13 9 8 7 6 7 9 9 10 9 5 5 4 3 4 4 5 5 6 5 4 7 8 15 18 22 26 23 31 37 38 47 55 54 53 61 67
96 96 97 97 97 98 98 98 97 96 97 97 96 97 99 98 98 99 100 100 100 100 100 100 98 98 97 82 63 67 67 46 30 25 23 20 18 19 19 16 11 10 13 17 16 14 14 13 13 13 13 12 9 7 7 5 6 9 8 8 7 5 5 4 4 4 4 5 5 6 5 5 6 8 13 15 27 38 28 25 33 33 37 51 52 52 65 71
99 97 97 97 98 97 95 96 96 94 96 97 96 96 98 98 95 98 100 99 100 99 100 99 98 99 87 63 60 71 57 31 23 24 22 19 19 16 13 13 9 11 17 17 17 14 12 12 11 12 12 11 9 7 6 5 5 8 9 7 6 6 5 4 4 5 5 5 6 6 5 4 6 7 8 12 22 30 27 24 26 28 32 46 52 54 66 71
99 99 99 100 100 99 97 95 94 94 95 96 98 96 96 96 94 95 97 100 100 98 100 99 99 94 73 58 60 64 53 32 23 23 20 18 19 12 10 11 7 14 21 16 17 16 11 10 10 10 10 11 9 6 6 5 6 8 8 7 6 6 4 4 4 5 6 6 6 5 4 5 5 6 7 11 15 19 23 21 20 26 31 45 58 60 64 72
100 100 100 100 100 100 99 98 96 95 93 94 97 96 95 94 92 90 91 96 97 98 101 99 95 80 67 69 58 45 43 34 25 21 18 20 18 10 9 11 10 18 21 17 16 13 10 9 9 9 10 10 8 6 6 5 6 7 7 7 6 6 4 4 4 5 6 5 5 4 5 6 5 5 5 8 13 16 21 22 22 25 31 43 57 64 69 79
99 99 99 100 100 100 100 99 99 98 97 95 95 96 96 92 86 85 87 90 93 97 98 97 88 69 69 76 58 40 31 26 28 21 14 20 18 9 10 14 15 18 20 19 16 11 8 8 8 8 8 8 7 6 5 5 6 6 7 7 6 6 5 5 5 5 5 5 5 5 6 5 5 5 4 6 10 14 16 20 22 24 31 35 44 66 82 87
97 98 100 100 100 98 96 97 99 100 99 98 98 99 98 94 86 82 85 84 89 93 92 94 81 63 69 65 50 41 24 19 32 26 18 21 18 12 13 15 14 15 17 17 14 9 7 7 6 6 7 7 6 6 5 5 5 5 6 6 6 6 5 5 5 6 5 5 4 5 6 5 4 5 5 5 6 11 13 13 17 23 33 34 46 75 88 85
96 96 98 99 100 99 94 94 98 98 98 97 97 98 99 97 85 78 81 81 82 83 80 80 73 69 71 54 40 35 17 14 24 26 24 21 19 17 16 17 14 14 16 15 12 9 7 7 5 6 7 7 6 6 6 5 5 5 6 6 6 6 6 6 5 6 6 5 5 4 5 5 5 5 5 5 4 8 11 11 12 18 35 48 60 76 79 77
97 96 95 97 98 99 96 94 94 97 98 96 94 94 92 83 68 62 69 74 72 72 70 64 65 76 72 50 38 28 16 15 15 21 26 20 20 19 16 18 15 14 15 13 11 8 8 7 6 7 7 6 6 7 6 6 5 5 6 7 7 6 6 6 4 6 6 5 4 4 5 5 5 5 4 5 4 7 10 11 9 10 31 50 58 66 69 71
97 97 97 98 97 97 99 97 94 93 94 95 91 84 72 53 43 42 52 64 62 62 64 59 66 78 69 47 31 20 16 16 12 18 26 22 19 18 17 18 15 14 13 11 10 9 9 7 7 8 7 7 7 7 6 5 6 6 6 7 8 7 7 6 4 6 6 5 4 4 7 6 5 5 4 4 4 7 9 9 10 7 19 40 51 59 65 66
99 99 98 99 98 97 98 97 95 91 87 89 82 64 47 32 30 35 40 51 56 55 53 57 74 80 68 48 26 16 16 15 12 15 21 22 19 17 17 16 15 14 12 11 11 10 9 8 7 7 7 8 8 7 6 6 6 6 7 8 8 9 8 6 4 6 6 5 4 4 8 7 5 4 4 5 3 8 10 7 10 7 18 44 55 59 63 63
99 99 98 99 98 97 96 94 94 86 68 63 57 39 31 28 30 37 40 46 55 57 55 65 79 74 61 47 28 19 17 15 13 11 15 21 20 17 16 15 15 14 12 12 12 12 11 8 8 8 8 8 8 9 10 10 7 6 9 9 8 8 8 6 4 6 6 5 4 5 8 6 5 4 4 4 4 9 10 9 9 8 27 52 57 62 64 60
99 99 98 97 96 95 93 88 85 71 43 34 31 23 30 39 39 43 44 44 47 56 67 72 69 63 55 39 25 23 21 17 15 12 12 17 19 17 15 15 13 13 12 11 11 11 11 9 8 8 8 9 10 12 13 13 10 7 9 10 9 8 7 5 4 4 5 5 4 5 6 5 5 4 3 3 5 9 9 10 9 11 38 59 58 65 65 61
99 99 95 88 80 77 73 67 63 53 35 23 16 21 43 59 59 55 53 52 54 62 72 64 52 55 51 35 25 23 20 18 15 12 11 14 17 16 14 14 12 12 11 10 11 10 9 10 9 9 9 11 11 11 13 16 13 9 9 9 8 6 6 6 4 4 4 5 4 4 5 5 5 3 4 4 4 9 9 11 8 12 43 59 56 65 64 64
93 92 87 72 54 46 44 42 41 39 34 21 13 32 61 74 75 69 63 66 72 74 70 58 50 50 43 35 30 20 14 16 14 10 10 13 16 15 13 12 11 11 10 10 10 9 9 9 9 12 12 12 12 11 14 15 13 10 10 10 8 6 6 5 4 3 4 5 4 5 6 6 6 3 5 5 4 9 9 11 9 15 44 54 53 63 63 63
79 76 68 57 41 33 34 35 36 36 34 16 10 40 70 83 88 81 68 62 65 64 55 53 53 41 29 26 23 15 11 13 12 10 11 14 15 14 12 11 10 10 11 12 11 9 9 10 12 15 15 13 13 12 12 11 8 8 8 8 8 6 5 4 5 3 3 6 5 5 6 6 6 4 5 7 7 10 9 12 9 15 42 52 49 57 60 61
66 59 50 44 35 29 30 33 33 38 42 31 30 51 63 64 66 66 61 53 51 45 33 33 39 32 23 18 15 12 12 13 13 12 12 14 14 13 12 10 9 11 11 12 12 9 9 14 15 15 15 13 12 12 11 9 7 7 8 9 7 6 6 4 4 4 3 5 5 6 6 5 6 4 6 8 10 11 9 13 11 11 31 43 45 51 57 59
62 54 45 39 34 30 29 30 34 40 44 49 59 55 37 28 28 32 36 34 33 33 26 22 24 25 21 16 13 12 12 14 13 11 13 14 13 14 12 10 10 12 11 10 11 10 11 17 16 13 13 11 12 12 12 11 9 8 10 11 8 6 6 4 4 4 4 6 6 6 5 5 6 4 6 8 11 13 10 12 14 10 14 25 38 45 52 58
64 62 53 43 38 33 25 25 33 36 39 59 72 50 24 18 18 17 18 19 19 19 22 20 18 18 16 14 12 12 13 15 14 11 12 14 14 14 11 9 11 12 10 10 12 14 15 17 15 12 12 12 12 12 12 12 11 12 13 13 10 7 5 5 5 3 4 7 7 6 5 6 6 5 5 7 10 13 11 12 13 12 10 14 30 41 46 55
74 74 64 50 40 33 26 23 26 28 35 55 60 38 24 20 14 14 16 20 20 13 13 14 15 16 15 14 12 12 15 15 15 12 11 15 14 11 9 9 10 10 9 10 13 17 18 16 13 11 12 13 13 13 15 14 13 15 15 14 12 8 6 6 7 5 6 8 8 7 7 8 7 6 6 5 8 10 11 12 10 12 12 13 29 40 43 51
82 79 71 57 44 33 23 16 17 26 37 45 42 27 21 19 14 16 18 23 24 18 14 11 11 13 13 14 12 12 15 15 14 11 11 15 13 10 9 8 8 8 8 9 11 15 16 13 10 10 11 12 13 16 18 18 17 17 16 15 13 9 6 7 9 9 8 10 11 9 11 11 9 8 7 5 8 8 10 13 11 12 11 18 36 40 46 64
88 83 75 66 57 34 17 25 33 36 39 41 40 29 21 18 16 19 25 32 29 20 17 13 11 12 11 11 11 11 14 14 12 11 11 14 12 10 8 7 8 8 8 9 10 13 13 12 10 10 10 11 14 18 18 19 18 16 15 14 12 10 8 6 8 10 11 14 12 12 16 15 9 8 8 8 8 7 12 14 13 13 11 27 46 44 59 81
93 92 81 74 73 42 19 37 43 31 25 24 24 22 19 19 19 24 34 44 37 21 17 16 11 11 10 11 11 11 15 16 11 9 12 13 11 9 9 8 8 8 7 7 10 11 11 10 10 10 11 13 16 16 15 16 16 15 12 10 10 10 10 9 9 11 15 17 14 13 18 17 12 11 10 10 8 9 16 15 15 14 12 34 49 48 70 84
97 98 86 78 86 73 48 41 30 17 15 15 16 18 17 17 20 28 42 50 37 19 17 16 12 13 13 11 11 14 19 17 10 9 12 14 12 9 9 10 9 9 7 9 13 14 11 11 11 11 13 14 16 14 12 12 14 14 10 8 9 8 10 11 10 12 13 15 15 13 15 16 15 12 10 10 8 12 18 16 19 15 16 44 54 51 71 78
97 98 89 75 75 81 78 67 46 25 15 13 19 21 17 18 24 33 50 53 28 12 17 17 15 16 13 12 13 15 16 12 11 11 10 13 13 11 11 10 9 9 7 11 16 14 10 12 13 13 14 14 14 12 9 9 12 12 8 8 8 7 9 9 10 13 13 16 18 14 14 18 17 11 8 9 9 16 19 19 23 17 24 56 62 54 65 69
84 88 88 75 54 49 65 80 67 37 20 17 19 23 20 20 27 37 55 56 26 10 16 17 18 18 15 15 16 14 12 10 12 11 10 14 14 11 12 10 9 9 8 10 14 13 10 9 10 12 13 12 11 9 7 9 11 10 7 8 8 7 7 9 12 13 15 21 21 17 17 21 20 13 11 14 14 17 20 20 22 18 29 56 60 52 58 63
67 70 76 78 61 45 53 72 66 42 31 28 24 26 26 24 33 48 59 48 22 10 13 16 19 17 15 19 18 14 12 11 10 10 13 15 13 12 11 8 8 9 9 9 11 11 9 8 8 9 10 9 8 8 7 7 9 8 8 9 11 10 7 9 11 11 17 22 19 16 18 23 23 15 12 15 16 17 20 19 17 19 29 44 48 44 50 59
51 54 66 81 78 64 54 50 45 39 37 37 34 31 27 27 37 54 56 33 13 11 12 15 16 14 15 20 19 14 12 12 11 13 16 15 14 13 12 10 9 11 12 11 11 9 8 10 10 8 8 8 7 8 8 7 7 8 9 11 15 15 11 11 11 13 21 24 18 14 14 19 23 18 14 14 15 14 16 16 17 27 38 40 38 39 47 56
42 44 56 66 69 69 54 31 27 37 39 40 40 31 24 31 40 47 41 22 13 13 11 13 14 13 16 18 17 14 12 13 12 15 17 17 16 14 13 13 12 15 18 15 12 11 9 9 9 9 8 7 8 10 11 9 8 9 10 14 19 20 18 19 19 19 22 22 16 14 15 18 21 22 19 17 17 15 14 20 22 31 42 41 37 43 53 58
36 39 44 46 57 61 42 27 32 42 43 41 39 29 26 39 42 36 28 19 16 12 9 12 12 13 16 17 17 14 12 13 13 15 16 16 17 14 12 11 11 15 17 15 14 13 12 10 8 10 10 7 9 11 14 13 11 11 10 13 20 23 25 25 22 20 21 19 15 15 18 21 24 25 19 16 22 21 19 24 27 29 37 42 42 47 53 55
31 37 39 41 63 64 42 44 53 50 48 42 32 29 36 45 39 28 24 20 15 10 9 12 12 14 16 15 16 14 13 14 13 15 16 16 18 16 13 11 9 12 13 15 15 14 16 15 11 11 10 8 10 11 12 11 9 9 9 11 17 22 26 25 22 21 21 19 18 19 21 25 32 32 23 19 23 23 24 27 31 31 33 40 43 42 48 56
28 38 46 46 65 70 55 56 59 55 54 40 26 29 39 44 34 25 23 17 12 11 9 9 11 15 16 14 15 13 14 15 13 14 16 16 17 16 14 12 9 10 12 17 17 14 15 15 10 9 8 7 9 9 8 9 11 11 7 9 16 19 20 22 25 26 24 22 20 22 24 27 34 33 25 22 23 23 26 29 30 32 33 38 39 40 55 69
32 48 64 61 61 62 57 54 53 57 55 38 30 31 29 29 24 19 18 12 11 12 9 9 10 14 16 15 15 14 14 16 16 17 18 16 15 14 13 12 10 9 11 14 16 15 16 15 10 8 8 8 8 8 7 9 16 17 11 9 12 11 13 23 29 26 25 25 22 25 32 34 35 33 26 24 25 22 22 28 34 37 40 41 40 51 71 80
51 52 57 53 45 44 46 46 47 53 48 37 36 33 21 18 16 13 12 10 9 8 8 12 12 12 16 16 15 14 14 18 20 19 19 18 16 14 12 11 10 9 9 11 14 15 18 20 14 9 10 8 6 8 7 6 12 16 14 10 9 10 14 21 27 26 28 28 22 26 41 46 38 33 31 27 25 26 29 39 45 42 44 49 53 67 79 82
68 52 43 39 35 36 36 38 41 45 42 36 37 34 22 15 12 10 10 9 10 8 8 14 13 11 13 14 14 13 14 20 23 21 23 25 25 21 14 12 11 9 7 9 12 14 18 21 18 14 13 9 6 9 9 8 7 10 13 12 15 23 23 20 23 29 33 31 25 20 25 38 38 30 30 30 29 37 45 52 52 46 51 62 68 77 83 86
68 54 44 39 36 38 41 42 42 42 42 36 31 29 21 15 12 9 9 9 9 10 10 13 14 11 11 11 11 12 12 20 28 28 29 34 39 38 27 19 18 13 7 8 12 15 20 25 24 19 14 10 9 11 12 12 8 7 11 10 14 25 25 24 28 27 24 29 31 19 16 39 48 33 30 37 47 55 57 60 63 61 65 71 74 80 85 89
59 53 48 42 39 45 52 52 46 44 44 37 26 20 15 12 11 7 8 9 9 10 11 12 13 11 11 9 8 11 13 19 26 29 32 33 36 41 35 24 21 18 11 9 10 12 19 29 30 22 15 14 15 13 12 13 11 10 13 11 14 19 19 24 29 22 17 24 27 20 29 53 56 40 35 46 58 63 64 71 75 70 71 75 79 86 88 87
49 49 46 39 41 50 56 55 48 43 40 33 24 18 12 10 10 8 8 8 8 10 11 12 15 12 12 11 8 11 15 18 19 24 35 42 42 44 38 24 23 27 22 15 12 14 19 26 31 27 21 21 18 11 9 10 10 10 11 12 14 16 18 23 25 19 16 20 23 22 39 58 53 43 43 45 49 53 62 77 79 75 78 79 77 81 83 78
48 49 42 38 42 46 48 49 44 38 37 33 24 17 12 9 9 8 8 8 9 11 11 13 15 12 13 14 11 10 12 14 18 22 33 45 45 40 30 21 23 25 21 15 15 22 25 25 30 29 24 21 16 12 12 9 9 10 9 11 11 11 17 22 30 36 27 18 21 21 34 53 50 42 44 44 43 45 53 64 67 70 80 79 71 73 77 75
46 41 36 40 41 37 43 47 41 37 39 33 24 20 14 11 10 8 8 10 12 15 15 15 14 12 13 14 14 14 13 14 18 22 27 32 31 26 21 22 23 18 19 23 22 23 26 24 28 31 29 26 18 15 16 10 8 11 10 11 12 11 14 16 26 41 34 23 24 24 33 52 51 41 42 43 40 41 44 51 52 55 67 69 63 68 78 75
41 35 32 38 36 34 43 48 46 49 47 37 32 31 22 15 14 12 11 14 15 17 18 16 14 12 11 12 14 15 15 15 15 19 26 28 26 24 21 22 24 20 24 33 29 24 27 26 25 32 40 39 29 25 31 27 20 18 15 12 11 11 15 20 24 27 25 22 21 23 37 53 51 44 46 42 39 42 41 45 51 52 55 56 56 67 79 72
42 35 29 30 29 30 37 41 45 51 48 42 44 43 32 23 19 15 14 15 15 16 17 17 14 11 8 10 13 12 12 15 14 15 24 27 24 24 20 21 28 25 24 31 28 21 27 30 27 31 41 45 42 40 43 40 31 27 22 16 15 12 12 24 34 33 28 25 22 28 44 54 47 45 52 50 48 54 51 49 58 61 57 56 60 69 74 68
39 32 28 27 26 29 33 36 41 48 51 53 52 41 34 30 23 16 17 18 16 16 18 18 16 14 13 13 14 12 10 12 12 13 23 29 25 22 21 19 25 30 32 33 26 20 25 32 31 30 34 41 45 42 35 33 32 30 27 24 26 25 17 19 31 36 34 33 40 48 50 51 50 52 65 68 64 70 70 62 67 74 75 72 66 65 65 63
33 30 33 34 35 38 39 38 45 55 58 60 58 49 44 39 27 20 21 20 17 18 20 20 17 19 21 19 21 20 14 14 14 12 18 25 25 24 23 21 22 33 41 31 20 22 31 35 33 32 31 31 35 35 30 30 30 29 30 30 31 39 40 31 24 26 27 31 48 61 57 58 62 60 69 76 70 75 80 75 76 81 84 81 65 55 57 58
26 34 36 37 46 51 49 46 51 60 60 57 59 58 54 48 38 30 26 22 18 18 22 24 21 19 19 18 20 22 19 19 18 15 15 24 31 28 27 33 31 29 32 24 15 22 31 31 31 33 33 26 24 28 30 30 29 28 32 32 31 44 60 56 39 28 25 28 46 63 66 70 72 65 67 71 70 74 78 79 83 81 79 78 64 54 55 54
28 38 37 36 45 52 53 50 50 57 61 59 55 54 56 57 48 34 27 30 31 23 24 31 26 17 16 17 19 25 33 39 40 40 37 37 40 36 38 58 57 32 19 21 22 25 30 32 33 32 31 28 25 27 29 31 32 31 31 31 33 41 54 63 61 49 40 39 49 61 68 70 69 67 69 67 67 77 81 81 86 84 80 77 62 52 54 55
31 38 42 39 38 40 45 47 46 51 56 57 55 54 56 56 46 31 25 35 42 33 30 38 33 21 21 26 30 36 42 47 50 52 48 39 40 42 42 56 64 43 21 20 30 37 37 39 41 37 33 29 27 29 29 31 34 35 33 31 33 39 45 58 72 73 68 62 57 61 73 74 64 59 60 56 56 66 72 75 81 85 85 80 65 53 52 52
32 31 38 40 33 30 35 38 41 48 53 56 60 59 53 49 46 40 29 26 32 32 30 36 39 37 36 33 35 37 34 34 36 37 35 29 31 37 33 32 40 38 29 35 52 56 44 37 41 43 40 34 29 30 33 32 33 38 40 36 37 45 50 53 62 70 76 75 65 65 76 77 62 53 53 53 52 56 61 65 71 72 71 70 65 59 55 53
37 34 37 43 37 26 28 30 34 45 53 56 59 56 47 40 40 43 39 29 27 27 27 29 35 41 41 37 35 31 26 27 27 24 23 22 20 22 22 21 22 24 38 64 84 80 57 45 45 42 36 35 33 32 33 35 40 49 51 45 42 45 46 48 51 54 63 73 71 67 70 66 56 53 56 58 56 57 58 58 60 62 60 60 60 57 55 54
Wind_Speed
13 13 13 13 13 13 12 12 12 12 12 12 12 13 12 12 12 12 12 12 12 13 13 14 14 14 15 16 17 17 18 19 19 15 18 20 16 14 14 14 11 10 10 11 13 13 15 17 17 18 14 10 8 8 11 10 8 8 6 8 8 8 10 10 12 7 5 5 4 5 5 3 9 5 4 5 8 8 5 12 13 13 8 6 8 17 24 22
14 14 14 13 13 13 13 13 13 13 12 12 13 13 13 12 13 12 13 13 13 13 13 14 14 14 15 15 16 16 17 19 19 20 25 25 18 17 17 17 16 13 12 14 16 17 16 15 16 16 11 8 8 9 11 9 9 8 7 8 8 10 12 13 13 6 4 6 5 4 1 5 6 1 4 5 9 7 6 10 11 12 10 6 12 20 21 21
14 14 14 14 13 13 13 13 13 13 12 12 13 13 13 13 13 13 13 13 13 14 14 14 14 15 15 15 16 15 16 19 17 16 19 17 18 21 18 16 16 14 17 19 17 18 16 15 16 14 11 9 8 10 11 9 9 9 8 8 9 13 14 16 14 7 5 8 6 3 1 5 1 2 1 4 9 10 9 8 8 9 10 9 13 16 17 19
14 14 14 14 14 13 13 13 13 13 13 13 13 13 13 12 12 13 14 14 14 14 14 14 14 15 14 15 15 14 15 15 8 2 0 4 12 17 17 16 14 14 19 20 17 16 17 16 15 13 11 9 9 11 11 10 9 8 9 9 12 14 14 17 11 7 5 3 5 3 1 6 1 1 2 5 6 4 5 8 13 10 9 10 11 13 14 14
14 14 14 14 14 14 14 14 14 13 13 13 13 13 13 13 12 13 14 14 14 14 14 14 14 15 15 14 12 12 12 6 2 7 7 6 7 10 13 14 13 14 18 20 17 16 16 16 14 12 10 9 10 11 11 13 11 8 11 13 16 16 14 13 7 6 6 2 4 5 6 5 2 2 5 5 3 2 2 2 14 14 10 12 11 12 13 11
14 14 14 14 14 14 14 14 14 13 14 13 13 13 13 13 13 12 13 14 14 14 14 13 14 15 15 14 11 11 8 3 3 6 9 6 5 6 9 11 12 14 16 17 17 15 15 15 13 11 9 9 12 12 11 14 13 9 11 14 17 18 16 14 9 3 3 3 5 10 10 5 3 6 6 5 4 9 7 9 10 17 12 13 11 10 13 11
14 15 14 14 14 14 14 14 14 14 14 14 14 14 13 13 13 13 12 13 14 13 14 14 14 15 14 15 12 8 8 10 7 6 9 5 4 4 7 9 12 14 15 16 15 14 13 14 14 11 10 10 12 13 13 14 14 12 12 14 16 17 16 14 10 2 3 6 10 11 9 3 7 9 2 4 6 10 11 9 9 15 13 13 10 9 11 10
15 15 15 15 15 14 14 14 14 14 14 14 14 14 14 13 13 13 13 13 13 13 13 13 13 13 12 14 10 7 9 11 4 11 9 6 5 5 9 10 13 15 15 16 15 13 12 14 14 11 10 11 11 13 14 14 14 14 14 14 14 15 15 14 12 5 2 7 8 11 9 3 10 10 3 5 9 11 10 13 13 14 14 13 11 9 8 7
15 15 15 15 15 15 15 15 15 14 14 14 14 14 14 13 13 13 13 13 13 13 13 13 13 10 9 9 8 7 6 2 9 8 6 8 7 8 11 11 14 16 14 15 15 14 11 11 13 12 11 11 12 13 14 13 10 12 15 15 15 15 14 10 10 11 7 6 6 9 10 7 11 11 6 6 8 12 11 14 16 16 15 12 11 9 11 7
15 15 15 15 15 15 15 16 15 15 14 14 14 14 14 14 14 13 13 13 12 12 12 12 11 10 10 9 9 8 2 2 6 6 7 10 10 12 12 12 16 16 14 14 15 14 11 10 11 11 12 12 12 12 14 13 9 11 16 15 17 17 15 11 9 11 10 9 9 9 11 11 12 11 5 7 10 11 11 12 13 17 17 10 10 13 12 7
15 15 15 15 15 16 16 16 16 16 15 15 15 14 14 14 14 13 12 12 12 11 10 10 10 9 11 10 9 7 1 1 2 6 9 12 14 14 13 13 15 16 15 13 13 14 13 13 11 8 8 9 11 13 13 14 12 15 16 11 13 16 16 16 11 10 11 10 12 11 13 12 11 12 8 10 13 10 10 10 11 14 16 11 11 13 10 11
15 16 16 15 16 16 16 16 16 16 16 16 15 15 15 15 15 14 13 12 11 10 9 9 7 6 11 9 10 15 11 8 6 4 8 12 13 13 12 14 15 15 14 13 12 13 13 13 12 10 8 7 9 10 10 12 14 16 15 10 12 14 15 18 13 11 12 10 12 12 12 11 12 13 11 14 13 11 10 11 12 10 13 15 13 14 11 10
16 16 16 16 16 16 16 16 16 17 17 16 16 16 16 16 16 15 13 12 10 9 9 8 6 8 10 7 13 23 20 14 9 6 8 11 13 12 11 13 14 13 14 14 12 10 11 12 13 12 11 9 8 7 7 8 11 13 13 10 11 10 11 16 14 13 14 10 11 10 8 9 12 15 13 15 14 12 11 12 10 10 10 15 14 12 10 11
16 16 16 16 16 16 16 16 17 17 17 17 17 17 17 18 18 15 13 12 9 7 6 5 5 7 7 9 19 23 16 12 10 9 10 12 13 13 13 13 12 12 13 13 13 9 9 12 13 11 11 11 10 11 9 8 9 11 11 10 9 8 9 14 15 15 14 11 12 11 7 8 12 16 16 14 10 11 10 11 9 9 8 13 13 11 10 10
16 16 16 16 16 17 17 17 17 17 18 18 17 18 18 18 17 15 14 11 8 6 4 4 6 7 6 11 18 17 14 14 13 13 13 14 14 14 13 13 12 13 12 12 12 10 9 11 11 8 9 11 12 12 9 7 8 8 9 9 9 9 10 13 16 18 17 12 15 14 8 8 11 14 18 16 12 13 12 10 10 9 10 15 11 10 9 8
17 17 17 17 17 17 17 17 17 18 20 19 18 18 17 17 16 14 12 9 6 4 2 5 10 10 7 7 6 6 13 15 15 15 15 16 15 13 13 13 12 12 12 11 11 10 10 9 8 8 10 10 10 9 7 7 8 8 8 8 10 11 10 12 15 19 20 15 16 16 10 7 11 14 15 17 17 17 15 12 13 10 13 16 11 10 8 7
17 17 17 17 17 17 17 17 18 19 20 20 20 18 15 15 14 10 7 4 3 4 7 9 9 9 8 10 8 6 13 16 15 15 17 17 16 15 13 11 10 11 11 10 11 10 10 8 7 7 9 9 9 8 8 8 7 7 8 8 11 14 11 10 13 16 21 17 15 16 12 10 12 13 12 16 21 18 14 14 14 10 14 13 11 10 9 9
17 17 17 17 18 18 18 18 19 20 21 20 18 16 15 14 10 6 4 2 3 6 10 11 9 6 7 11 13 11 11 13 12 13 17 17 16 16 11 9 8 10 10 9 10 10 8 7 7 7 8 9 9 9 8 9 10 9 9 9 9 13 14 13 14 13 20 18 15 15 14 14 16 14 13 11 19 19 15 13 12 10 16 13 11 11 10 10
17 17 18 18 18 18 19 19 19 20 21 21 18 15 13 10 5 6 8 7 5 5 6 6 9 6 5 7 13 11 3 7 9 11 16 17 16 14 10 9 9 10 9 7 9 11 8 6 8 8 8 9 10 11 11 13 16 12 9 10 11 11 12 14 15 12 20 17 15 14 14 15 17 16 11 2 10 12 13 11 10 10 16 14 11 10 10 11
18 18 18 19 19 19 19 20 20 20 20 21 19 14 8 6 3 4 8 10 10 10 11 8 12 12 12 10 11 9 4 6 7 10 14 16 14 12 10 10 10 9 9 8 9 10 8 7 8 9 10 12 13 14 15 17 19 15 12 12 13 12 11 15 15 12 17 14 13 14 14 15 14 15 13 9 10 10 10 9 9 9 13 14 14 12 11 10
19 19 19 19 20 20 20 20 20 19 19 18 16 10 6 7 6 4 3 8 13 17 18 17 15 15 17 15 13 8 8 8 9 11 14 15 13 11 9 10 11 9 10 12 9 8 8 8 9 11 13 14 14 14 15 17 17 14 13 13 11 12 11 14 14 12 15 9 10 14 14 14 13 14 12 12 15 13 11 9 10 11 11 12 14 16 13 10
20 19 20 20 20 21 21 21 20 20 18 15 11 9 10 12 10 10 10 9 13 17 19 20 20 18 18 19 18 12 7 9 11 12 14 15 13 11 10 11 11 9 10 13 8 7 9 9 12 14 13 13 14 12 13 15 14 11 9 12 10 8 10 12 14 13 12 7 8 13 13 12 12 14 13 13 14 13 12 11 11 11 11 11 13 16 13 12
20 20 21 20 21 22 21 21 21 21 19 14 12 12 14 16 13 13 11 8 13 17 16 17 19 18 17 17 17 14 11 10 11 12 16 15 13 12 11 11 12 11 11 12 10 8 7 10 15 15 13 14 13 7 7 10 9 8 8 8 9 7 9 7 6 7 8 4 6 8 9 9 11 13 12 12 11 12 13 13 13 11 10 10 11 16 13 12
20 21 21 21 22 22 21 24 24 20 17 15 16 18 17 15 14 13 10 7 11 14 15 17 16 16 16 16 15 15 13 11 11 12 18 16 12 12 11 11 12 11 11 13 15 12 10 11 13 15 16 15 10 5 6 6 5 8 10 10 9 10 11 7 7 7 7 6 5 6 8 6 10 13 10 10 13 12 13 13 13 11 11 7 12 16 12 10
20 20 20 21 22 22 23 23 19 13 10 13 18 20 15 11 9 9 8 6 8 10 13 15 12 12 14 15 14 13 12 11 13 12 17 18 14 11 10 9 9 11 13 16 15 12 12 9 8 14 15 10 8 8 10 8 6 8 12 14 15 15 14 10 8 7 4 5 7 6 8 6 9 11 9 10 12 10 10 11 12 11 11 9 14 14 12 13
20 20 20 20 21 23 21 12 10 14 13 11 12 9 6 5 6 7 6 5 6 7 6 7 7 7 10 12 12 10 11 11 13 13 17 19 17 11 9 7 7 10 12 13 11 7 10 9 7 10 7 7 9 10 11 11 8 8 10 14 18 19 18 15 6 7 4 5 6 8 8 6 6 11 13 13 11 11 10 11 11 12 11 10 13 12 13 11
20 19 20 20 20 20 13 8 14 18 13 6 4 6 5 6 7 6 5 4 6 6 7 5 5 6 7 9 11 10 8 8 11 15 15 18 16 12 11 9 7 10 10 8 7 5 8 10 8 8 7 7 9 9 10 13 9 8 10 13 17 18 17 16 10 6 6 6 6 9 9 7 6 10 14 15 13 13 13 12 10 11 8 11 10 11 14 9
20 19 20 20 20 15 11 13 16 14 13 10 10 8 8 8 8 5 4 4 3 2 6 4 4 4 6 9 13 12 9 7 11 14 15 19 16 11 11 12 10 11 11 8 6 6 9 10 9 9 10 8 9 10 11 13 10 10 13 13 13 15 16 14 9 6 6 5 5 8 9 7 6 7 10 13 14 13 14 13 12 12 6 13 11 9 12 9
21 20 20 22 21 15 11 14 13 13 16 15 11 10 10 9 7 4 4 4 3 1 3 4 4 6 8 10 13 15 12 8 9 11 15 17 15 12 10 12 13 12 12 10 8 6 7 10 10 10 9 8 10 12 13 13 11 11 14 14 9 11 13 11 8 7 6 5 6 7 7 6 6 6 6 9 12 13 12 11 11 12 9 16 14 12 12 9
23 23 22 22 19 12 7 14 17 14 13 12 11 11 10 8 5 4 5 4 3 3 4 4 5 9 11 11 12 15 15 10 7 10 14 13 14 14 10 10 11 11 10 10 11 10 5 4 8 9 8 10 12 12 14 15 13 12 12 10 9 8 9 9 7 7 6 5 8 10 9 8 8 7 7 7 9 10 9 10 12 12 11 15 14 13 14 11
26 25 23 19 14 10 7 9 11 9 7 8 10 9 7 5 4 6 6 3 5 6 7 7 8 10 12 13 11 13 16 12 8 12 12 11 13 13 9 9 8 7 8 8 10 13 10 4 4 6 9 12 11 10 10 11 11 11 8 6 7 6 6 7 6 6 6 5 8 12 13 11 8 5 4 5 7 10 9 8 9 10 12 11 10 12 12 10
27 26 23 19 16 14 13 10 8 9 6 7 9 6 5 5 6 6 6 4 4 4 6 7 9 10 13 15 11 12 15 12 10 13 12 10 10 11 11 8 6 6 8 7 8 11 11 9 8 8 11 13 10 7 6 6 8 9 7 6 7 5 6 6 6 6 6 6 9 11 11 10 6 1 1 1 1 4 7 5 6 11 13 11 10 11 11 8
26 25 22 18 15 17 18 14 12 11 8 8 8 5 5 6 7 7 8 7 3 1 1 4 6 8 11 12 11 12 14 12 11 12 13 13 10 11 14 13 11 9 6 6 8 8 8 9 11 11 9 11 10 7 6 7 8 9 7 7 6 5 6 6 6 6 6 7 9 7 5 4 2 3 2 5 5 5 3 7 7 10 13 12 11 11 10 9
24 22 19 12 11 14 13 10 10 8 7 7 6 5 7 8 7 8 10 10 8 6 4 3 4 8 10 10 10 11 11 11 13 13 12 13 10 10 12 15 16 12 7 6 6 7 8 8 10 11 8 10 12 11 9 6 8 10 9 8 7 5 5 5 5 5 4 5 6 5 3 2 2 2 3 7 8 8 7 9 9 10 11 11 11 10 9 10
22 16 11 7 10 13 11 9 8 6 5 6 5 6 9 8 6 9 9 10 11 12 11 8 6 9 10 9 10 12 11 10 13 14 11 11 11 10 10 12 16 14 8 6 4 6 10 8 9 13 10 12 14 13 12 9 6 7 8 9 6 5 5 3 3 2 1 2 3 4 2 2 4 4 1 5 6 7 7 7 9 10 9 9 10 9 10 12
19 10 5 7 11 11 10 10 7 5 6 5 6 8 8 7 7 8 8 8 10 11 13 12 9 8 8 7 9 13 12 10 11 12 10 12 13 12 12 11 13 16 11 7 4 5 8 7 8 14 14 13 14 12 12 10 5 2 6 9 7 8 7 3 3 3 2 3 3 3 2 4 5 5 4 5 4 5 6 6 8 9 8 6 7 10 13 13
15 8 7 9 8 7 7 8 7 6 6 5 7 8 7 9 11 11 10 11 13 12 11 9 7 9 9 7 9 12 11 8 10 9 8 10 10 12 15 13 14 17 15 10 6 3 4 6 4 8 13 14 12 12 13 12 7 4 5 4 4 8 6 3 3 2 2 6 5 5 5 4 4 5 7 8 7 6 7 11 11 9 7 7 9 13 14 13
12 10 9 8 3 4 3 7 8 7 5 5 9 9 9 10 12 14 13 14 16 13 9 7 6 8 10 8 8 10 9 7 7 7 6 6 4 7 11 11 12 17 17 14 7 1 2 4 6 10 12 13 11 10 11 12 12 9 3 2 2 4 4 3 3 2 3 5 4 7 9 6 2 2 9 11 8 7 11 12 10 7 6 6 9 13 14 14
10 8 5 2 3 0 4 7 8 7 5 7 8 8 9 12 14 16 16 15 15 12 9 9 9 9 9 9 9 9 11 8 5 4 6 3 1 8 9 5 6 13 17 16 8 3 1 3 4 8 10 7 9 7 7 7 11 10 5 3 4 3 2 3 2 3 5 4 3 7 7 3 4 4 4 9 11 10 8 8 7 6 5 4 7 9 11 12
7 5 1 4 2 0 2 7 7 6 6 8 8 8 9 12 14 17 18 17 13 9 8 9 10 10 10 11 11 8 7 5 4 4 4 2 1 5 9 7 7 9 11 14 11 7 4 2 2 4 9 7 6 7 7 7 7 7 6 7 6 4 4 4 3 4 5 4 4 5 3 3 5 6 4 12 15 10 7 7 6 3 2 4 7 6 3 8
6 5 1 4 3 4 5 6 6 6 7 8 9 10 11 11 12 14 17 17 13 8 7 10 12 11 9 11 11 8 4 5 7 4 1 2 2 2 6 6 5 8 11 11 10 5 4 4 3 4 6 7 6 5 8 10 9 8 7 7 7 6 5 4 4 4 4 4 4 2 1 3 3 4 5 9 11 12 12 10 8 7 4 4 7 6 5 6
6 3 2 5 5 5 5 4 4 5 6 7 9 11 11 10 12 14 14 14 11 8 8 10 13 12 10 11 9 8 8 6 7 5 3 3 4 4 4 8 7 8 8 6 4 2 1 3 4 5 6 9 10 7 7 10 12 13 9 6 8 8 5 5 4 3 4 4 2 2 2 3 3 2 5 7 9 11 11 10 11 12 9 8 10 9 6 5
3 1 4 6 5 5 5 5 5 5 6 8 11 14 14 10 11 13 12 9 6 7 8 9 12 12 9 8 7 8 9 5 5 6 5 5 5 4 3 9 12 10 4 3 2 2 1 2 4 4 4 8 9 9 12 13 9 9 8 5 7 7 6 6 4 1 3 3 2 3 3 3 3 3 6 7 9 11 10 8 9 11 10 9 12 11 6 5
4 2 3 5 2 4 5 4 4 5 7 9 10 13 15 12 10 11 10 8 6 7 8 9 12 13 9 8 8 9 9 6 5 4 4 4 4 3 4 5 10 10 4 3 1 2 1 3 4 4 3 5 6 4 7 10 9 7 7 8 9 8 6 3 2 1 2 4 4 4 1 3 3 5 7 6 7 9 10 9 7 7 9 10 11 10 6 7
6 3 1 2 1 3 4 4 5 5 8 9 8 11 13 11 9 10 10 10 9 9 9 8 11 13 10 10 11 12 10 8 7 3 4 3 4 4 6 3 5 10 5 3 5 3 2 2 4 5 5 5 5 2 1 4 6 7 10 11 11 13 10 2 4 1 3 4 5 3 1 3 5 9 10 7 7 8 8 8 6 4 6 8 9 8 6 8
4 2 2 1 1 3 4 4 6 6 7 8 6 7 11 9 7 9 10 9 9 9 8 8 10 11 9 10 11 11 11 10 10 5 3 5 3 2 7 7 4 7 2 6 4 3 2 2 4 6 5 3 2 2 1 3 5 8 12 13 12 13 13 6 2 2 2 2 2 3 2 7 7 10 10 7 8 9 7 6 6 5 4 3 6 8 9 10
3 2 5 4 2 4 5 4 6 6 6 7 6 5 9 10 7 5 4 6 7 7 7 7 8 8 8 10 9 8 10 11 11 9 7 7 5 2 7 9 10 8 4 1 5 4 2 3 6 7 7 6 6 5 2 2 5 10 13 13 14 16 15 9 6 4 2 3 2 1 3 9 8 9 10 8 7 7 5 4 4 3 1 2 5 11 13 12
3 2 4 4 2 4 5 6 8 7 5 5 3 4 9 11 7 2 2 3 5 4 4 6 8 9 10 10 8 8 9 10 10 9 6 2 5 5 5 7 5 9 9 6 6 4 4 5 6 7 9 9 8 7 4 4 5 8 12 13 12 14 16 13 8 6 6 3 4 6 8 11 10 10 11 9 7 6 7 7 3 1 4 5 8 13 14 14
4 2 3 2 2 4 5 6 9 8 6 7 3 4 10 11 7 4 2 2 3 3 3 6 8 10 11 10 7 5 3 4 6 7 6 5 5 4 1 6 7 5 8 7 4 2 4 3 3 6 8 8 8 7 6 6 6 7 8 9 11 11 12 13 13 11 6 4 10 13 13 12 10 10 11 9 8 8 8 8 6 5 5 5 10 15 15 15
4 2 3 1 3 4 4 5 8 7 6 8 6 7 10 9 6 6 6 6 2 3 5 7 8 7 5 7 7 5 5 5 5 5 7 5 3 1 1 3 2 7 8 5 2 3 3 1 1 3 5 6 6 5 5 5 6 8 10 7 5 9 10 10 11 13 8 6 13 15 14 11 8 10 12 11 11 13 12 12 11 9 9 9 11 16 15 15
7 3 3 4 1 2 2 5 7 6 7 7 6 8 9 10 11 10 7 7 7 6 7 8 8 6 5 9 10 9 9 9 7 5 7 7 2 1 2 5 5 3 5 1 5 5 5 1 2 4 5 4 5 4 3 3 4 6 9 11 5 4 8 7 8 7 4 4 10 11 9 7 7 10 13 13 14 15 16 14 12 11 12 12 14 15 15 16
9 5 5 6 2 2 3 5 6 5 5 5 5 7 9 10 12 9 5 6 9 10 11 11 8 5 4 8 11 11 10 10 9 7 7 7 6 5 3 4 5 4 1 3 5 4 5 3 1 5 5 4 5 5 4 3 2 3 4 7 7 4 2 4 7 8 4 1 3 4 7 8 9 11 12 13 15 15 15 13 12 12 13 14 15 15 15 16
Wind_Direction
354 353 353 351 349 346 342 336 328 323 318 314 311 308 306 307 306 306 307 305 306 307 307 310 308 309 309 307 306 307 312 305 295 277 245 248 249 244 251 244 247 256 228 211 218 209 198 209 218 218 223 228 227 234 234 229 225 231 227 239 249 246 252 247 251 266 280 281 89 42 19 294 268 166 163 237 247 267 99 84 82 77 83 160 156 135 143 144
352 352 351 349 348 346 343 339 335 329 322 319 314 310 308 307 307 307 306 305 305 306 307 307 308 309 310 309 311 316 316 299 286 274 256 253 249 244 248 243 244 246 210 203 217 208 199 204 211 214 217 226 220 222 231 222 217 229 231 233 239 244 251 247 259 288 13 2 32 43 320 246 273 102 117 206 231 229 147 98 90 84 77 108 122 132 144 141
351 349 348 347 346 344 342 340 338 334 328 323 319 315 310 307 308 306 306 306 305 306 307 307 310 309 311 312 315 323 315 297 283 267 262 252 235 234 239 239 239 229 202 202 212 208 207 208 207 212 214 224 222 216 222 218 214 222 234 239 237 243 254 260 274 312 30 19 354 18 196 225 296 43 113 235 239 215 183 130 114 112 110 119 125 138 145 144
349 348 345 344 342 342 341 339 338 336 333 329 324 319 314 309 306 306 306 305 306 307 307 309 311 309 312 312 314 324 309 292 282 239 218 183 205 224 232 233 229 214 202 206 220 217 216 216 210 213 216 226 226 221 221 220 216 211 226 240 245 244 247 257 279 300 285 305 295 350 356 251 238 125 233 256 261 230 201 154 144 142 136 144 150 149 144 149
347 345 344 343 342 340 339 338 338 336 336 333 328 324 318 313 307 306 305 305 306 306 308 309 310 312 311 312 319 320 301 284 94 107 111 134 176 208 217 221 217 204 202 213 233 232 222 224 219 214 221 232 230 226 223 223 223 220 228 236 248 254 253 265 310 315 285 286 254 276 287 288 70 196 228 226 237 148 290 213 145 145 151 156 169 158 141 155
345 344 342 341 341 339 338 337 337 336 335 333 331 328 321 316 309 304 303 304 305 304 308 308 310 313 312 318 318 300 279 288 31 121 133 134 152 184 197 204 206 197 203 217 236 240 225 223 223 217 221 232 237 234 226 221 222 232 240 238 244 254 261 280 307 329 352 329 266 259 272 327 353 260 225 195 166 139 195 250 150 134 149 155 161 156 148 167
344 343 341 340 339 338 338 336 336 335 334 333 331 329 323 317 310 303 299 301 302 302 305 306 311 313 320 327 306 263 243 275 293 141 139 142 143 161 176 185 193 192 204 217 230 236 223 221 224 223 223 229 240 242 237 229 223 232 242 242 246 250 255 266 280 350 74 256 259 259 266 321 274 265 234 184 154 140 177 206 135 123 144 147 145 155 155 155
343 342 340 339 338 337 337 335 335 333 332 332 328 327 323 317 311 304 300 298 298 301 303 306 312 317 330 332 307 257 248 258 193 139 147 156 150 154 159 172 186 191 207 220 231 235 223 224 227 229 230 230 239 243 245 240 227 231 242 246 251 253 252 249 253 255 203 234 245 257 268 272 254 257 263 214 160 149 152 142 139 142 147 144 152 157 132 115
343 341 340 339 338 337 336 334 333 331 330 329 326 325 322 316 310 304 300 298 297 298 302 305 311 320 323 313 295 283 277 190 129 143 169 161 164 166 162 173 186 192 209 224 235 235 223 224 229 234 240 240 242 242 246 246 231 229 239 245 249 254 259 257 246 243 239 240 230 241 254 247 253 257 259 245 174 153 156 161 163 153 150 158 155 125 90 88
341 340 339 338 337 336 334 333 332 329 328 325 323 321 319 318 310 303 300 296 296 294 297 303 310 320 308 286 274 276 294 113 138 162 174 166 165 167 178 186 184 195 214 225 233 233 227 229 229 231 244 254 253 250 248 249 249 243 243 241 243 250 260 259 245 245 247 243 234 234 243 235 243 251 229 245 225 171 167 190 180 153 150 154 111 94 102 139
340 339 337 336 336 335 333 332 330 327 326 322 321 319 317 317 310 305 299 294 294 291 293 299 308 315 297 284 274 266 290 329 184 161 171 171 166 172 195 198 186 201 219 227 231 231 235 238 241 242 237 246 255 261 259 257 259 253 254 253 247 250 253 248 233 234 243 235 230 231 243 237 232 239 214 236 238 176 171 201 197 167 142 129 106 115 145 163
339 338 336 335 333 333 331 330 328 326 324 321 319 317 315 314 311 305 296 295 296 292 295 299 310 309 290 282 257 250 255 275 272 210 185 178 181 186 201 203 194 207 222 232 233 229 241 249 257 261 246 239 247 258 267 265 260 256 259 259 251 251 250 246 230 224 235 226 220 222 240 238 229 233 215 233 234 168 184 211 204 193 143 140 143 139 153 156
339 337 335 334 332 331 330 328 327 324 322 319 317 314 313 313 311 303 293 291 291 291 294 294 302 289 282 278 253 252 255 258 254 228 196 193 203 203 209 213 206 217 231 242 247 234 241 255 259 261 261 264 259 258 278 273 259 255 254 252 253 254 248 242 229 222 232 228 215 208 227 234 229 232 216 231 228 168 192 215 197 204 159 136 135 134 144 148
339 336 334 333 331 329 328 326 324 322 320 317 315 314 314 314 311 302 289 283 284 294 294 287 286 277 266 259 265 266 265 260 242 223 215 208 209 210 213 219 219 228 235 245 259 255 245 247 251 260 264 266 268 267 271 266 251 246 243 242 246 250 250 238 223 215 224 224 211 206 225 231 225 224 215 227 215 159 195 215 201 213 157 117 119 130 141 148
338 337 335 332 331 329 327 326 322 320 319 317 316 318 316 314 309 299 287 280 279 284 297 287 253 253 267 262 271 271 255 248 239 225 220 211 213 215 208 215 228 231 235 241 252 263 259 245 241 251 255 251 261 269 268 257 244 236 235 238 234 237 250 244 224 210 214 216 204 210 232 230 234 227 211 215 194 175 210 217 214 215 134 118 122 127 140 149
338 336 334 333 331 328 326 324 321 319 318 319 320 320 316 313 309 299 291 280 270 258 253 261 226 220 265 281 286 252 222 225 231 226 220 213 215 218 206 209 226 228 233 238 238 248 252 246 236 238 247 242 242 250 255 249 234 221 226 237 237 234 238 247 235 207 203 213 203 208 229 226 238 238 217 209 190 188 210 210 214 203 124 123 131 129 145 144
336 335 334 332 330 328 326 323 322 320 319 322 324 322 316 313 309 302 299 275 253 229 223 252 248 225 249 282 300 255 218 218 225 219 212 211 215 221 212 202 218 222 223 227 229 236 234 232 231 231 240 241 235 231 235 240 232 220 221 230 240 241 235 237 243 207 191 208 208 200 219 238 237 241 252 225 190 185 202 204 213 183 123 128 137 136 149 146
336 334 332 331 330 328 325 323 322 320 320 321 324 323 313 309 304 291 285 195 198 225 231 251 272 259 241 256 263 258 230 209 207 206 202 203 213 223 215 199 215 214 212 220 219 224 220 214 222 227 226 230 236 228 223 235 234 220 215 221 231 243 242 233 244 210 180 199 214 197 202 236 245 243 275 249 174 176 196 199 216 173 131 135 145 147 157 157
335 334 331 329 328 326 325 323 322 321 320 321 327 327 309 299 284 248 231 204 188 218 243 214 200 235 294 262 242 252 251 165 181 203 197 194 208 223 216 207 217 210 211 214 201 207 208 202 218 227 223 220 227 227 227 233 236 239 240 233 221 233 241 234 247 214 175 188 209 208 205 219 243 241 246 223 144 188 204 190 223 182 136 142 156 154 162 167
335 333 330 328 325 325 323 320 320 320 319 322 329 325 294 274 270 222 212 211 213 234 269 248 200 231 278 277 241 225 161 147 196 212 198 190 201 217 211 208 214 210 217 216 195 199 204 210 218 221 225 223 222 230 239 239 243 263 286 269 229 225 239 230 239 210 175 188 202 210 221 210 227 241 219 172 165 223 223 193 230 203 152 155 158 153 166 172
333 331 330 327 324 323 321 320 318 315 315 318 319 305 275 297 325 344 291 247 233 232 249 257 239 244 258 263 265 234 174 184 213 217 202 190 198 212 199 201 212 203 216 223 203 191 208 222 225 224 230 233 227 225 239 252 258 270 289 288 246 216 236 234 233 209 171 185 204 199 223 220 214 232 224 187 178 207 221 203 226 220 191 179 162 160 169 164
331 331 328 326 323 321 322 320 314 310 311 305 288 264 264 288 316 334 317 290 270 254 247 250 249 252 251 254 266 261 218 201 207 213 198 183 198 210 183 191 215 206 208 220 205 190 212 228 234 231 231 239 240 226 231 246 259 271 271 280 270 217 225 233 229 217 171 172 218 194 209 229 224 228 227 211 187 186 201 206 225 223 212 207 170 159 166 167
330 329 326 326 324 322 323 319 313 307 297 275 249 249 260 276 302 319 308 288 286 278 259 246 240 241 241 242 244 238 235 224 216 209 185 180 204 211 191 192 214 215 204 212 212 198 209 224 228 233 233 231 237 241 251 248 244 263 260 258 277 253 233 230 205 189 140 146 247 225 221 226 231 232 220 226 219 184 180 203 226 222 217 220 167 155 166 167
329 328 326 326 324 324 326 320 311 298 275 248 242 252 260 276 300 314 308 283 281 279 260 245 238 235 231 229 222 216 224 230 234 211 175 182 211 210 209 204 210 222 209 209 216 216 225 225 215 222 229 223 221 231 254 262 240 243 251 248 264 266 249 221 160 154 140 155 212 252 259 237 231 232 205 227 240 196 176 201 221 220 216 192 141 152 150 123
329 328 325 327 325 325 328 319 308 295 268 238 245 256 255 267 300 321 313 283 270 267 248 233 229 230 220 213 208 206 212 218 237 221 170 184 215 205 212 215 210 224 214 210 217 224 234 238 221 221 219 204 209 227 224 236 253 241 238 243 257 270 269 247 183 168 193 191 180 206 243 241 233 237 219 227 230 190 180 209 216 221 210 145 125 141 117 105
328 327 325 326 325 328 330 317 313 318 300 261 256 275 276 279 324 332 302 269 274 263 217 191 192 201 200 199 192 195 216 216 230 224 173 183 216 214 215 216 208 226 222 214 216 229 241 241 239 227 195 173 212 232 224 222 237 248 230 226 245 260 272 273 228 167 209 230 194 199 231 244 225 229 228 226 216 189 199 215 211 223 209 141 127 133 109 116
327 324 325 324 323 332 331 306 318 315 297 296 334 336 328 325 334 322 281 263 271 232 181 160 164 174 183 185 172 181 219 199 206 223 186 178 209 223 226 218 202 225 236 232 212 209 237 228 220 226 207 199 224 229 222 218 221 247 238 215 225 241 256 267 257 209 216 233 211 201 220 245 236 224 216 214 214 199 202 207 203 226 205 127 121 121 115 137
324 322 324 321 318 318 292 286 306 293 278 322 347 320 318 335 324 294 263 269 286 180 169 160 121 160 189 175 173 200 233 185 182 213 188 177 198 214 227 233 227 222 223 242 234 194 216 215 194 215 225 220 232 233 222 218 221 237 248 243 224 222 236 249 251 238 227 231 228 211 216 235 248 239 211 207 215 204 202 204 201 221 189 119 120 124 126 154
325 323 320 319 318 310 272 259 271 276 285 305 320 312 316 320 302 265 245 262 293 313 178 163 135 178 197 177 185 213 233 211 185 189 174 176 202 216 229 238 244 241 218 224 248 221 211 217 204 206 222 230 229 231 224 216 227 235 246 265 257 217 225 236 240 238 227 228 238 224 215 234 249 235 201 206 217 205 201 206 203 209 172 129 138 152 145 158
326 323 321 320 316 315 285 244 253 279 290 291 306 313 305 292 267 234 227 226 259 235 158 153 182 191 194 190 196 211 222 224 192 171 170 176 200 218 239 235 238 258 233 211 234 243 229 231 233 214 213 232 228 228 227 214 219 232 233 252 257 229 223 224 228 239 235 232 240 229 210 221 252 233 197 213 216 196 197 209 205 193 149 130 144 152 147 157
325 323 323 314 293 299 303 253 262 297 288 292 315 307 282 259 231 230 226 230 279 240 164 168 198 189 192 201 202 203 212 221 190 170 179 182 191 206 230 231 225 253 246 218 223 235 233 224 247 239 226 234 235 235 234 214 211 225 226 235 241 229 221 223 221 227 235 231 238 238 220 216 241 240 205 213 196 187 203 210 189 154 129 137 151 140 137 151
323 321 318 302 278 268 259 255 308 329 312 319 317 279 240 227 223 233 233 241 275 222 181 206 211 191 195 207 209 200 205 216 195 182 188 189 190 199 211 217 199 210 231 222 211 222 230 222 213 224 234 237 242 235 220 215 222 224 215 221 236 224 210 222 220 215 228 229 229 238 237 228 228 221 139 126 159 210 202 172 130 128 131 147 152 133 131 144
321 319 310 295 275 256 249 261 296 305 302 308 296 253 224 229 225 225 231 240 270 72 144 247 230 206 203 210 214 203 205 213 197 192 198 195 198 201 207 214 204 205 226 219 213 211 218 230 220 213 220 227 237 236 204 197 215 227 227 219 221 222 218 222 221 218 226 229 225 224 243 246 178 87 115 127 64 23 110 121 119 137 137 137 139 134 134 133
320 313 302 287 259 254 257 265 274 281 288 279 262 228 224 235 235 229 231 237 255 273 264 257 243 229 223 225 224 207 209 215 199 198 202 198 206 204 204 216 213 214 234 227 226 221 214 225 216 208 203 196 213 237 238 216 202 210 226 235 226 215 222 229 227 236 241 236 228 203 209 249 153 99 72 105 90 58 72 86 96 124 134 131 135 137 125 109
319 306 290 262 236 241 245 245 250 267 268 246 231 224 222 228 232 235 240 239 247 260 258 249 241 241 236 229 229 219 216 217 202 204 210 203 211 211 201 211 216 217 224 220 225 231 231 231 199 201 210 195 201 228 248 249 227 204 212 230 234 214 212 226 230 242 312 297 262 215 201 74 130 171 123 100 104 95 93 91 99 116 127 133 142 131 102 95
318 300 242 227 228 218 217 228 229 234 243 233 225 225 223 231 234 235 247 248 248 255 259 251 232 237 245 227 230 228 215 214 211 208 215 214 214 215 210 205 209 215 219 217 217 217 236 249 197 189 204 207 204 215 232 241 241 227 222 221 222 216 207 204 220 192 167 247 246 192 136 91 134 189 177 150 145 123 117 106 97 98 95 96 120 113 96 103
315 296 247 241 228 183 191 215 208 217 239 235 231 235 234 237 241 247 259 266 265 260 261 261 235 231 241 229 232 227 201 200 225 220 214 219 220 219 219 211 203 211 219 223 228 226 243 267 260 213 210 207 207 214 223 229 224 221 234 249 255 228 203 180 221 203 215 250 232 170 163 167 200 199 159 164 180 155 104 77 75 87 87 65 76 94 100 114
301 292 271 251 190 144 218 222 207 218 232 232 239 247 251 248 248 252 258 269 276 273 266 269 255 239 238 235 238 229 204 193 211 223 225 224 251 258 240 222 206 209 215 222 228 191 230 265 287 277 244 201 193 221 226 221 225 230 236 356 310 234 208 208 218 190 209 242 245 210 197 191 236 196 161 170 165 115 82 74 78 83 83 67 81 106 117 120
276 276 270 198 136 174 259 217 206 222 228 231 237 239 247 256 260 264 267 269 270 269 261 260 261 251 243 248 246 232 226 215 182 225 244 216 275 297 295 293 242 220 210 213 219 158 159 259 253 279 277 213 184 218 234 219 225 235 244 227 199 181 218 251 258 244 228 223 233 234 216 156 8 339 152 134 110 92 77 81 87 66 53 57 76 100 117 123
264 267 219 126 139 294 207 197 206 224 225 230 241 244 247 252 256 261 268 271 272 268 258 260 262 256 251 256 254 245 243 229 199 232 256 260 290 282 288 314 328 291 239 214 209 186 172 197 223 281 293 267 211 203 219 230 229 227 232 235 225 197 194 208 227 250 254 248 235 239 223 79 14 350 72 104 107 119 116 97 99 88 56 62 71 76 121 145
281 280 145 134 155 144 164 197 211 226 235 238 243 248 254 261 263 262 258 256 261 270 267 271 278 276 276 272 257 248 254 233 227 225 121 306 293 226 266 301 344 310 276 231 207 192 175 173 205 258 268 264 252 217 217 235 242 234 220 220 232 226 204 212 227 232 246 261 265 262 147 100 33 11 78 103 116 132 136 136 143 144 158 160 134 145 186 169
276 290 93 131 164 178 202 238 239 236 245 250 255 256 255 259 266 270 267 255 255 268 261 261 271 273 282 291 281 266 265 240 215 203 164 222 219 180 265 315 302 265 263 240 203 76 50 181 198 225 241 259 276 299 288 264 253 248 241 231 236 231 213 215 223 230 247 249 262 267 206 113 80 101 111 107 110 117 125 137 142 144 160 172 151 151 182 171
258 329 101 137 177 214 243 274 269 263 266 267 275 275 265 261 260 261 266 269 281 288 270 259 263 258 258 278 288 283 280 268 209 201 197 222 234 229 290 329 311 281 244 227 241 86 70 241 215 219 243 258 273 311 309 293 281 262 253 253 255 248 230 228 228 213 232 226 223 246 218 119 108 127 114 112 121 121 120 123 128 133 137 140 136 140 166 155
308 330 122 136 159 242 266 299 296 289 290 284 293 292 280 280 283 273 269 271 271 268 262 260 258 251 249 261 264 262 267 270 247 205 178 209 230 242 260 309 316 295 246 218 278 106 206 246 228 236 257 237 243 304 314 312 327 315 283 268 260 254 240 246 336 345 255 252 250 248 179 105 125 123 110 112 122 124 123 118 110 113 117 121 124 130 141 124
309 291 164 131 90 292 298 332 322 302 300 300 309 302 285 278 282 285 284 278 270 267 266 269 268 261 251 246 247 252 259 266 263 218 138 181 194 187 207 209 324 300 277 107 101 136 212 223 206 235 254 241 236 239 313 339 341 325 312 300 280 264 251 223 58 337 268 279 274 272 83 118 138 127 123 119 99 83 83 93 88 75 93 107 113 118 119 111
310 323 348 351 25 348 335 345 337 325 320 315 310 290 275 268 266 270 275 275 270 275 280 285 293 292 280 263 252 250 254 254 256 255 149 155 153 193 206 186 219 276 315 84 120 194 195 184 212 232 240 234 215 200 185 3 348 336 332 332 328 309 285 258 180 201 214 203 280 315 142 150 138 120 117 106 86 69 45 53 69 52 36 65 112 113 102 102
306 7 359 339 357 3 348 356 357 341 321 311 309 305 288 276 261 236 253 279 274 270 279 283 284 289 293 287 274 265 267 257 250 249 223 180 134 157 218 217 213 197 139 126 231 210 172 208 212 224 231 213 181 174 194 311 332 345 344 342 351 351 336 303 251 240 254 210 212 317 132 126 107 101 110 110 107 101 85 68 65 79 162 186 115 105 101 102
352 49 20 341 336 3 358 356 347 331 325 322 317 337 324 308 296 255 222 286 284 268 272 281 278 269 266 266 258 259 272 268 259 258 247 174 116 162 223 289 260 174 164 217 218 186 226 224 193 206 234 232 207 192 212 253 291 335 340 341 356 11 10 353 318 295 291 254 146 115 112 107 98 95 100 107 119 119 115 108 87 236 184 150 110 100 96 93
22 54 23 9 48 26 11 352 338 334 350 350 359 14 341 323 312 316 0 5 322 321 313 292 279 265 265 274 273 261 271 292 304 322 344 38 87 161 220 345 318 238 207 208 187 186 250 234 188 208 225 230 219 206 221 248 259 269 290 328 3 21 26 17 1 353 360 99 122 119 108 99 101 97 85 82 91 88 79 77 61 22 19 73 95 94 89 86
11 37 2 1 85 56 37 14 357 358 8 357 7 15 349 341 350 358 27 49 32 8 353 317 295 282 301 355 10 25 31 7 353 351 338 354 67 112 140 138 234 282 262 208 139 336 299 348 356 251 231 221 207 197 214 239 248 240 241 263 344 18 25 31 19 358 357 95 118 117 107 98 96 88 72 60 67 74 66 59 59 48 26 32 66 75 74 74
354 17 340 313 14 41 29 36 22 15 21 16 3 351 350 4 3 351 11 40 33 22 5 342 331 331 6 32 26 20 11 349 341 344 327 326 346 250 225 180 180 267 284 321 35 343 291 238 175 228 243 223 191 189 196 204 239 243 238 243 251 26 29 40 44 4 323 136 121 113 111 112 99 79 65 53 55 67 71 65 60 59 49 46 56 58 55 55
353 351 335 312 316 19 7 29 43 38 25 21 351 334 345 4 3 350 349 16 23 19 6 360 358 348 16 30 9 349 340 328 320 318 312 312 300 266 246 248 244 236 159 72 48 343 306 316 232 226 236 216 178 176 181 186 221 234 258 264 242 200 146 71 51 30 15 148 151 118 113 113 99 83 70 60 56 60 68 70 67 66 62 58 59 60 58 57